| time (UTC) | temp C | wind direction | speed KPH | gust KPH | rain 1hr cm | rain 24hr cm | rain mn cm | humidity % | barometer mb |
| 20260506034027 | 20 | 90 | 3.2 | 6.4 | 0.00 | 0.00 | 0.00 | 60 | 1032.4 |
| 20260506033024 | 19 | 69 | 3.2 | 14.5 | 0.00 | 0.00 | 0.00 | 61 | 1032.6 |
| 20260506032023 | 19 | 63 | 4.8 | 9.7 | 0.00 | 0.00 | 0.00 | 61 | 1032.6 |
| 20260506031019 | 19 | 73 | 4.8 | 9.7 | 0.00 | 0.00 | 0.00 | 62 | 1032.7 |
| 20260506030016 | 19 | 123 | 1.6 | 6.4 | 0.00 | 0.00 | 0.00 | 61 | 1032.7 |
| 20260506025033 | 18 | 106 | 1.6 | 8.0 | 0.00 | 0.00 | 0.00 | 64 | 1032.8 |
| 20260506024030 | 18 | 107 | 3.2 | 12.9 | 0.00 | 0.00 | 0.00 | 64 | 1033.0 |
| 20260506023028 | 18 | 111 | 4.8 | 11.3 | 0.00 | 0.00 | 0.00 | 64 | 1032.8 |
| 20260506022025 | 18 | 122 | 3.2 | 9.7 | 0.00 | 0.00 | 0.00 | 65 | 1033.0 |
| 20260506021022 | 17 | 125 | 4.8 | 11.3 | 0.00 | 0.00 | 0.00 | 67 | 1033.0 |
| 20260506020020 | 17 | 122 | 6.4 | 12.9 | 0.00 | 0.00 | 0.00 | 68 | 1033.1 |
| 20260506015017 | 17 | 129 | 4.8 | 11.3 | 0.00 | 0.00 | 0.00 | 69 | 1033.1 |
| 20260506014036 | 17 | 149 | 4.8 | 8.0 | 0.00 | 0.00 | 0.00 | 70 | 1033.0 |
| 20260506013033 | 17 | 143 | 4.8 | 8.0 | 0.00 | 0.00 | 0.00 | 70 | 1033.0 |
| 20260506012030 | 16 | 140 | 3.2 | 9.7 | 0.00 | 0.00 | 0.00 | 71 | 1032.9 |
| 20260506011028 | 16 | 125 | 4.8 | 9.7 | 0.00 | 0.00 | 0.00 | 72 | 1032.9 |
| 20260506010025 | 16 | 118 | 4.8 | 9.7 | 0.00 | 0.00 | 0.00 | 74 | 1032.9 |
| 20260506005022 | 15 | 114 | 4.8 | 12.9 | 0.00 | 0.00 | 0.00 | 75 | 1032.8 |
| 20260506004020 | 15 | 113 | 4.8 | 14.5 | 0.00 | 0.00 | 0.00 | 76 | 1032.7 |
| 20260506003017 | 15 | 57 | 4.8 | 9.7 | 0.00 | 0.00 | 0.00 | 78 | 1032.8 |
| 20260506002035 | 14 | 88 | 6.4 | 11.3 | 0.00 | 0.00 | 0.00 | 79 | 1032.7 |
| 20260506001032 | 13 | 53 | 4.8 | 11.3 | 0.00 | 0.00 | 0.00 | 81 | 1032.6 |
| 20260506000030 | 13 | 93 | 4.8 | 9.7 | 0.00 | 0.00 | 0.00 | 83 | 1032.5 |
| 20260505235027 | 12 | 109 | 4.8 | 9.7 | 0.00 | 0.00 | 0.00 | 84 | 1032.3 |
| 20260505234024 | 12 | 102 | 3.2 | 8.0 | 0.00 | 0.00 | 0.00 | 83 | 1032.1 |
| 20260505233021 | 12 | 221 | 1.6 | 6.4 | 0.00 | 0.00 | 0.00 | 83 | 1032.0 |
| 20260505232018 | 12 | 82 | 4.8 | 11.3 | 0.00 | 0.00 | 0.00 | 83 | 1031.9 |
| 20260505231035 | 12 | 25 | 6.4 | 12.9 | 0.00 | 0.00 | 0.00 | 83 | 1031.9 |
| 20260505230030 | 12 | 89 | 4.8 | 8.0 | 0.00 | 0.00 | 0.00 | 83 | 1031.8 |
| 20260505225026 | 12 | 37 | 4.8 | 9.7 | 0.00 | 0.00 | 0.00 | 83 | 1031.7 |
| 20260505224023 | 12 | 35 | 4.8 | 14.5 | 0.00 | 0.00 | 0.00 | 83 | 1031.6 |
| 20260505223020 | 12 | 135 | 6.4 | 12.9 | 0.00 | 0.00 | 0.00 | 83 | 1031.5 |
| 20260505222035 | 12 | 124 | 3.2 | 8.0 | 0.00 | 0.00 | 0.00 | 83 | 1031.5 |
| 20260505221030 | 12 | 189 | 6.4 | 9.7 | 0.00 | 0.00 | 0.00 | 82 | 1031.3 |
| 20260505220025 | 12 | 25 | 4.8 | 8.0 | 0.00 | 0.00 | 0.00 | 82 | 1031.3 |
| 20260505215019 | 12 | 70 | 4.8 | 9.7 | 0.00 | 0.00 | 0.00 | 82 | 1031.2 |
| 20260505214035 | 12 | 18 | 4.8 | 12.9 | 0.00 | 0.00 | 0.00 | 83 | 1031.2 |
| 20260505213029 | 12 | 4 | 4.8 | 9.7 | 0.00 | 0.00 | 0.00 | 83 | 1031.0 |
| 20260505212024 | 12 | 93 | 3.2 | 9.7 | 0.00 | 0.00 | 0.00 | 83 | 1031.0 |
| 20260505211018 | 12 | 7 | 8.0 | 11.3 | 0.00 | 0.00 | 0.00 | 83 | 1030.9 |
| 20260505210034 | 12 | 124 | 6.4 | 9.7 | 0.00 | 0.00 | 0.00 | 83 | 1030.9 |
| 20260505205027 | 12 | 184 | 8.0 | 11.3 | 0.00 | 0.00 | 0.00 | 82 | 1030.8 |
| 20260505204023 | 12 | 216 | 1.6 | 4.8 | 0.00 | 0.00 | 0.00 | 82 | 1030.8 |
| 20260505203017 | 12 | 118 | 6.4 | 14.5 | 0.00 | 0.00 | 0.00 | 83 | 1030.7 |
| 20260505202033 | 12 | 174 | 8.0 | 11.3 | 0.00 | 0.00 | 0.00 | 83 | 1030.8 |
| 20260505201028 | 12 | 78 | 1.6 | 6.4 | 0.00 | 0.00 | 0.00 | 83 | 1030.8 |
| 20260505200024 | 12 | 161 | 3.2 | 6.4 | 0.00 | 0.00 | 0.00 | 82 | 1030.6 |
| 20260505195018 | 12 | 92 | 3.2 | 6.4 | 0.00 | 0.00 | 0.00 | 82 | 1030.7 |
| 20260505194034 | 12 | 118 | 4.8 | 8.0 | 0.00 | 0.00 | 0.00 | 81 | 1030.7 |
| 20260505193029 | 12 | 122 | 4.8 | 8.0 | 0.00 | 0.00 | 0.00 | 81 | 1030.8 |
| 20260505192022 | 12 | 129 | 3.2 | 6.4 | 0.00 | 0.00 | 0.00 | 81 | 1030.8 |
| 20260505191035 | 12 | 126 | 3.2 | 6.4 | 0.00 | 0.00 | 0.00 | 81 | 1030.7 |
| 20260505190028 | 12 | 118 | 3.2 | 6.4 | 0.00 | 0.00 | 0.00 | 81 | 1030.8 |
| 20260505185022 | 12 | 133 | 1.6 | 4.8 | 0.00 | 0.00 | 0.00 | 80 | 1030.7 |
| 20260505184017 | 12 | 108 | 3.2 | 6.4 | 0.00 | 0.00 | 0.00 | 80 | 1030.6 |
| 20260505183033 | 12 | 77 | 3.2 | 6.4 | 0.00 | 0.00 | 0.00 | 80 | 1030.7 |
| 20260505182026 | 12 | 47 | 3.2 | 8.0 | 0.00 | 0.00 | 0.00 | 81 | 1030.7 |
| 20260505181016 | 12 | 35 | 3.2 | 8.0 | 0.00 | 0.00 | 0.00 | 82 | 1030.7 |
| 20260505180034 | 11 | 68 | 3.2 | 6.4 | 0.00 | 0.00 | 0.00 | 86 | 1030.5 |
| 20260505175027 | 11 | 89 | 3.2 | 6.4 | 0.00 | 0.00 | 0.00 | 90 | 1030.5 |
| 20260505174020 | 10 | 84 | 1.6 | 3.2 | 0.00 | 0.00 | 0.00 | 91 | 1030.3 |
| 20260505173034 | 10 | 103 | 3.2 | 4.8 | 0.00 | 0.00 | 0.00 | 92 | 1030.4 |
| 20260505172029 | 9 | 95 | 1.6 | 4.8 | 0.00 | 0.00 | 0.00 | 92 | 1030.3 |
| 20260505171022 | 9 | 101 | 1.6 | 3.2 | 0.00 | 0.00 | 0.00 | 91 | 1030.4 |
| 20260505170017 | 9 | 100 | 1.6 | 3.2 | 0.00 | 0.00 | 0.00 | 91 | 1030.3 |
| 20260505165031 | 10 | 71 | 1.6 | 4.8 | 0.00 | 0.00 | 0.00 | 91 | 1030.3 |
| 20260505164025 | 10 | 91 | 3.2 | 4.8 | 0.00 | 0.00 | 0.00 | 91 | 1030.3 |
| 20260505163021 | 10 | 73 | 3.2 | 4.8 | 0.00 | 0.00 | 0.00 | 91 | 1030.2 |
| 20260505162035 | 10 | 94 | 1.6 | 3.2 | 0.00 | 0.00 | 0.00 | 91 | 1030.1 |
| 20260505161028 | 10 | 49 | 1.6 | 4.8 | 0.00 | 0.00 | 0.00 | 91 | 1030.0 |
| 20260505153029 | 10 | 65 | 1.6 | 3.2 | 0.00 | 0.00 | 0.00 | 90 | 1029.9 |
| 20260505152021 | 10 | 75 | 1.6 | 3.2 | 0.00 | 0.00 | 0.00 | 90 | 1029.9 |
| 20260505151017 | 11 | 96 | 1.6 | 3.2 | 0.00 | 0.00 | 0.00 | 90 | 1029.9 |
| 20260505125015 | 12 | 93 | 1.6 | 3.2 | 0.00 | 0.00 | 0.00 | 87 | 1029.6 |
| 20260505124030 | 12 | 127 | 1.6 | 3.2 | 0.00 | 0.00 | 0.00 | 86 | 1029.7 |
| 20260505123025 | 12 | 125 | 1.6 | 3.2 | 0.00 | 0.00 | 0.00 | 84 | 1029.6 |
| 20260505122021 | 12 | 136 | 1.6 | 3.2 | 0.00 | 0.00 | 0.00 | 83 | 1029.6 |
| 20260505121016 | 13 | 148 | 1.6 | 3.2 | 0.00 | 0.00 | 0.00 | 83 | 1029.5 |
| 20260505120031 | 13 | 150 | 1.6 | 3.2 | 0.00 | 0.00 | 0.00 | 81 | 1029.5 |
| 20260505115026 | 14 | 124 | 1.6 | 4.8 | 0.00 | 0.00 | 0.00 | 81 | 1029.5 |
| 20260505114021 | 14 | 128 | 1.6 | 3.2 | 0.00 | 0.00 | 0.00 | 78 | 1029.5 |
| 20260505113016 | 15 | 144 | 1.6 | 3.2 | 0.00 | 0.00 | 0.00 | 77 | 1029.4 |
| 20260505112033 | 15 | 132 | 1.6 | 4.8 | 0.00 | 0.00 | 0.00 | 77 | 1029.4 |
| 20260505111029 | 15 | 132 | 1.6 | 3.2 | 0.00 | 0.00 | 0.00 | 75 | 1029.2 |
| 20260505102027 | 17 | 123 | 1.6 | 3.2 | 0.00 | 0.00 | 0.00 | 71 | 1028.7 |
| 20260505101021 | 17 | 148 | 1.6 | 4.8 | 0.00 | 0.00 | 0.00 | 70 | 1028.7 |
| 20260505100017 | 17 | 159 | 1.6 | 3.2 | 0.00 | 0.00 | 0.00 | 71 | 1028.6 |
| 20260505095029 | 17 | 149 | 1.6 | 3.2 | 0.00 | 0.00 | 0.00 | 71 | 1028.5 |
| 20260505094023 | 18 | 164 | 1.6 | 4.8 | 0.00 | 0.00 | 0.00 | 71 | 1028.5 |
| 20260505093017 | 18 | 176 | 1.6 | 6.4 | 0.00 | 0.00 | 0.00 | 71 | 1028.5 |
| 20260505092032 | 18 | 195 | 3.2 | 4.8 | 0.00 | 0.00 | 0.00 | 70 | 1028.4 |
| 20260505091028 | 18 | 156 | 3.2 | 6.4 | 0.00 | 0.00 | 0.00 | 69 | 1028.4 |
| 20260505090024 | 19 | 204 | 3.2 | 6.4 | 0.00 | 0.00 | 0.00 | 68 | 1028.4 |
| 20260505085019 | 19 | 203 | 4.8 | 6.4 | 0.00 | 0.00 | 0.00 | 68 | 1028.3 |
| 20260505084036 | 19 | 209 | 6.4 | 11.3 | 0.00 | 0.00 | 0.00 | 67 | 1028.2 |
| 20260505083032 | 20 | 204 | 6.4 | 9.7 | 0.00 | 0.00 | 0.00 | 66 | 1028.2 |
| 20260505082029 | 19 | 196 | 6.4 | 12.9 | 0.00 | 0.00 | 0.00 | 66 | 1028.2 |
| 20260505081026 | 20 | 209 | 8.0 | 11.3 | 0.00 | 0.00 | 0.00 | 66 | 1028.2 |
| 20260505080021 | 20 | 198 | 6.4 | 12.9 | 0.00 | 0.00 | 0.00 | 65 | 1028.2 |
| 20260505075018 | 20 | 189 | 8.0 | 11.3 | 0.00 | 0.00 | 0.00 | 65 | 1028.1 |
| 20260505074016 | 20 | 213 | 8.0 | 16.1 | 0.00 | 0.00 | 0.00 | 64 | 1028.2 |
| 20260505073033 | 20 | 203 | 8.0 | 17.7 | 0.00 | 0.00 | 0.00 | 62 | 1028.2 |
| 20260505072031 | 20 | 207 | 9.7 | 14.5 | 0.00 | 0.00 | 0.00 | 62 | 1028.2 |
| 20260505071028 | 20 | 201 | 8.0 | 16.1 | 0.00 | 0.00 | 0.00 | 61 | 1028.2 |
| 20260505070026 | 21 | 190 | 8.0 | 12.9 | 0.00 | 0.00 | 0.00 | 60 | 1028.2 |
| 20260505065023 | 21 | 214 | 8.0 | 16.1 | 0.00 | 0.00 | 0.00 | 59 | 1028.1 |
| 20260505064020 | 21 | 195 | 8.0 | 11.3 | 0.00 | 0.00 | 0.00 | 59 | 1028.2 |
| 20260505063017 | 21 | 208 | 9.7 | 14.5 | 0.00 | 0.00 | 0.00 | 59 | 1028.1 |
| 20260505062035 | 21 | 195 | 8.0 | 11.3 | 0.00 | 0.00 | 0.00 | 59 | 1028.0 |
| 20260505061032 | 21 | 192 | 6.4 | 9.7 | 0.00 | 0.00 | 0.00 | 59 | 1028.1 |
| 20260505060029 | 21 | 193 | 6.4 | 11.3 | 0.00 | 0.00 | 0.00 | 59 | 1028.1 |
| 20260505055027 | 21 | 194 | 9.7 | 14.5 | 0.00 | 0.00 | 0.00 | 58 | 1028.1 |
| 20260505054024 | 21 | 196 | 8.0 | 11.3 | 0.00 | 0.00 | 0.00 | 59 | 1028.0 |
| 20260505053021 | 21 | 205 | 8.0 | 11.3 | 0.00 | 0.00 | 0.00 | 58 | 1028.1 |
| 20260505052019 | 21 | 177 | 4.8 | 9.7 | 0.00 | 0.00 | 0.00 | 53 | 1028.2 |
| 20260505051016 | 21 | 212 | 4.8 | 8.0 | 0.00 | 0.00 | 0.00 | 53 | 1028.5 |
| 20260505041021 | 21 | 98 | 1.6 | 4.8 | 0.00 | 0.00 | 0.00 | 53 | 1029.4 |
| 20260505040018 | 21 | 331 | 1.6 | 4.8 | 0.00 | 0.00 | 0.00 | 53 | 1029.5 |
| 20260505035015 | 20 | 261 | 1.6 | 4.8 | 0.00 | 0.00 | 0.00 | 54 | 1029.7 |